User: anonymous   Login
Location: Le Domaine
(47.0333°N, 76.5361°W)
Time: 21:16:48
(UTC-05:00)
Language:

Courier 1B - Orbit

View from above orbital plane
View from above orbital plane
View from above satellite
View from above satellite

Ground track
Ground track

The orbit data is extracted from the following two-line orbital elements,

1    58U 60013A   19321.83821374 +.00000066 +00000-0 -27292-4 0  9994
2    58 028.3268 093.2753 0164878 108.9832 252.8655 13.46319414909948
Epoch (UTC): 17 November 2019 20:07:01
Eccentricity: 0.0164878
inclination: 28.3268°
perigee height: 963 km
apogee height: 1209 km
right ascension of ascending node: 93.2753°
argument of perigee: 108.9832°
revolutions per day: 13.46319414
mean anomaly at epoch: 252.8655°
orbit number at epoch: 90994

The dashed part of the orbit path shows where the satellite is in the earth's shadow,  

DLR